Location: Lisboa
(38.7223°N, 9.1393°W)
Time: 23:05:58
(UTC+01:00)

AAUSAT CUBESAT 2 - Visible Passes

Search period start: 27 May 2024 00:00
Search period end: 06 June 2024 00:00
Orbit: 514 x 518 km, 97.6° (Epoch: 26 May)

Date Brightness Start Highest point End Pass type
(mag) Time Alt. Az. Time Alt. Az. Time Alt. Az.
30 May ? 05:38:21 10° NNE 05:41:47 33° E 05:45:12 10° SSE visible
31 May ? 05:23:54 10° NE 05:26:52 22° E 05:29:48 10° SSE visible
01 Jun ? 05:09:45 10° ENE 05:11:51 14° E 05:13:57 10° SE visible
